When you browse on this site, cookies collect data to enhance your experience and personalize the content and advertising you see.
Visit our Privacy Policy to learn more. By continuing to use the site, you agree to this use of cookies and data.
  • In Deutschland
  • Länderverzeichnis
  • Für 7 Tage
  • Wassertemperatur
  • Satellitenkarten
  • Wetterkarte
  • Widgets
  • user-avatar
    Anmelden

    Stündliche Wetter Xiancun

    Heute, 13 Dezember, Donnerstag

    Zeit Temperatur Niederschläge Wind Luftdruck Luftfeuchtigkeit
    00:00 +10°C° 0.3 mm 1 m/S 750 mmHg 87%
    01:00 +9°C° 0.3 mm 1 m/S 749 mmHg 88%
    02:00 +9°C° 0 mm 1 m/S 749 mmHg 89%
    03:00 +9°C° 0.3 mm 1 m/S 749 mmHg 90%
    04:00 +9°C° 0.3 mm 1 m/S 749 mmHg 90%
    05:00 +9°C° 0.3 mm 1 m/S 749 mmHg 91%
    06:00 +9°C° 0.2 mm 1 m/S 750 mmHg 91%
    07:00 +9°C° 0.2 mm 1 m/S 750 mmHg 90%
    08:00 +10°C° 0.2 mm 1 m/S 750 mmHg 90%
    09:00 +10°C° 0.2 mm 1 m/S 750 mmHg 89%
    10:00 +10°C° 0.2 mm 1 m/S 750 mmHg 88%
    11:00 +11°C° 0.2 mm 1 m/S 750 mmHg 87%
    12:00 +11°C° 0.1 mm 1 m/S 750 mmHg 87%
    13:00 +11°C° 0.1 mm 1 m/S 750 mmHg 87%
    14:00 +11°C° 0.1 mm 1 m/S 749 mmHg 87%
    15:00 +11°C° 0 mm 1 m/S 749 mmHg 88%
    16:00 +11°C° 0 mm 1 m/S 749 mmHg 89%
    17:00 +11°C° 0 mm 1 m/S 749 mmHg 90%
    18:00 +10°C° 0 mm 1 m/S 749 mmHg 91%
    19:00 +10°C° 0 mm 1 m/S 750 mmHg 92%
    20:00 +9°C° 0 mm 1 m/S 750 mmHg 93%
    21:00 +9°C° 0 mm 1 m/S 750 mmHg 92%
    22:00 +10°C° 0 mm 1 m/S 750 mmHg 92%
    23:00 +10°C° 0 mm 1 m/S 750 mmHg 92%

    Morgen, 14 Dezember, Freitag

    Zeit Temperatur Niederschläge Wind Luftdruck Luftfeuchtigkeit
    00:00 +10°C° 0 mm 1 m/S 750 mmHg 92%
    01:00 +10°C° 0 mm 1 m/S 750 mmHg 91%
    02:00 +10°C° 0 mm 1 m/S 750 mmHg 91%
    03:00 +10°C° 0 mm 1 m/S 750 mmHg 91%
    04:00 +10°C° 0 mm 1 m/S 750 mmHg 91%
    05:00 +10°C° 0 mm 1 m/S 750 mmHg 91%
    06:00 +10°C° 0 mm 1 m/S 750 mmHg 90%
    07:00 +10°C° 0 mm 1 m/S 750 mmHg 89%
    08:00 +10°C° 0 mm 1 m/S 751 mmHg 88%
    09:00 +12°C° 0 mm 1 m/S 751 mmHg 84%
    10:00 +13°C° 0 mm 1 m/S 750 mmHg 80%
    11:00 +14°C° 0 mm 1 m/S 750 mmHg 76%
    12:00 +14°C° 0 mm 1 m/S 750 mmHg 76%
    13:00 +15°C° 0 mm 1 m/S 749 mmHg 75%
    14:00 +15°C° 0 mm 1 m/S 749 mmHg 74%
    15:00 +14°C° 0 mm 1 m/S 749 mmHg 78%
    16:00 +14°C° 0 mm 1 m/S 749 mmHg 81%
    17:00 +13°C° 0 mm 1 m/S 749 mmHg 84%
    18:00 +12°C° 0 mm 1 m/S 749 mmHg 86%
    19:00 +12°C° 0 mm 1 m/S 750 mmHg 88%
    20:00 +11°C° 0 mm 1 m/S 750 mmHg 90%
    21:00 +11°C° 0 mm 1 m/S 750 mmHg 90%
    22:00 +10°C° 0 mm 1 m/S 750 mmHg 90%
    23:00 +10°C° 0 mm 1 m/S 750 mmHg 90%

    übermorgen, 15 Dezember, Samstag

    Zeit Temperatur Niederschläge Wind Luftdruck Luftfeuchtigkeit
    00:00 +10°C° 0 mm 1 m/S 750 mmHg 90%
    01:00 +10°C° 0 mm 1 m/S 750 mmHg 91%
    02:00 +9°C° 0 mm 1 m/S 750 mmHg 91%
    03:00 +9°C° 0 mm 1 m/S 749 mmHg 91%
    04:00 +9°C° 0 mm 1 m/S 749 mmHg 91%
    05:00 +9°C° 0 mm 1 m/S 748 mmHg 91%
    06:00 +10°C° 0 mm 1 m/S 749 mmHg 89%
    07:00 +10°C° 0 mm 1 m/S 749 mmHg 87%
    08:00 +11°C° 0 mm 1 m/S 749 mmHg 85%
    09:00 +13°C° 0 mm 1 m/S 749 mmHg 79%
    10:00 +15°C° 0 mm 1 m/S 749 mmHg 73%
    11:00 +18°C° 0 mm 1 m/S 749 mmHg 67%
    12:00 +18°C° 0 mm 1 m/S 748 mmHg 67%
    13:00 +19°C° 0 mm 1 m/S 747 mmHg 67%
    14:00 +19°C° 0 mm 1 m/S 747 mmHg 67%
    15:00 +18°C° 0 mm 1 m/S 746 mmHg 72%
    16:00 +16°C° 0 mm 1 m/S 746 mmHg 77%
    17:00 +15°C° 0 mm 1 m/S 746 mmHg 83%
    18:00 +14°C° 0 mm 1 m/S 747 mmHg 86%
    19:00 +14°C° 0 mm 1 m/S 747 mmHg 89%
    20:00 +13°C° 0 mm 1 m/S 747 mmHg 93%
    21:00 +13°C° 0.1 mm 1 m/S 747 mmHg 93%
    22:00 +13°C° 0.1 mm 1 m/S 747 mmHg 93%
    23:00 +12°C° 0.1 mm 0 m/S 747 mmHg 93%

    16 Dezember, Sonntag

    Zeit Temperatur Niederschläge Wind Luftdruck Luftfeuchtigkeit
    00:00 +12°C° 0 mm 0 m/S 747 mmHg 94%
    01:00 +12°C° 0 mm 0 m/S 747 mmHg 94%
    02:00 +12°C° 0 mm 0 m/S 746 mmHg 94%
    03:00 +12°C° 0.1 mm 0 m/S 746 mmHg 94%
    04:00 +12°C° 0.1 mm 0 m/S 746 mmHg 93%
    05:00 +12°C° 0.1 mm 0 m/S 746 mmHg 93%
    06:00 +12°C° 0.1 mm 0 m/S 746 mmHg 92%
    07:00 +13°C° 0.1 mm 0 m/S 747 mmHg 92%
    08:00 +13°C° 0.1 mm 0 m/S 747 mmHg 91%
    09:00 +15°C° 0.1 mm 1 m/S 747 mmHg 88%
    10:00 +16°C° 0.1 mm 1 m/S 747 mmHg 84%
    11:00 +18°C° 0.1 mm 1 m/S 747 mmHg 80%
    12:00 +18°C° 0.2 mm 1 m/S 746 mmHg 81%
    13:00 +16°C° 0.2 mm 1 m/S 746 mmHg 81%
    14:00 +16°C° 0.2 mm 1 m/S 745 mmHg 81%
    15:00 +16°C° 0.1 mm 1 m/S 745 mmHg 84%
    16:00 +15°C° 0.1 mm 1 m/S 745 mmHg 87%
    17:00 +15°C° 0.1 mm 1 m/S 745 mmHg 89%
    18:00 +14°C° 0 mm 1 m/S 746 mmHg 91%
    19:00 +13°C° 0 mm 1 m/S 746 mmHg 93%
    20:00 +12°C° 0 mm 1 m/S 747 mmHg 95%
    21:00 +12°C° 0 mm 1 m/S 747 mmHg 95%
    22:00 +11°C° 0 mm 1 m/S 747 mmHg 95%
    23:00 +11°C° 0 mm 1 m/S 747 mmHg 95%

    17 Dezember, Montag

    Zeit Temperatur Niederschläge Wind Luftdruck Luftfeuchtigkeit
    00:00 +10°C° 0 mm 1 m/S 747 mmHg 94%
    01:00 +10°C° 0 mm 1 m/S 747 mmHg 93%
    02:00 +9°C° 0 mm 1 m/S 747 mmHg 92%
    03:00 +9°C° 0 mm 1 m/S 747 mmHg 91%
    04:00 +8°C° 0 mm 1 m/S 747 mmHg 89%
    05:00 +8°C° 0 mm 1 m/S 747 mmHg 88%
    06:00 +8°C° 0 mm 1 m/S 747 mmHg 85%
    07:00 +9°C° 0 mm 1 m/S 748 mmHg 82%
    08:00 +9°C° 0 mm 1 m/S 748 mmHg 79%
    09:00 +12°C° 0 mm 1 m/S 748 mmHg 68%
    10:00 +14°C° 0 mm 1 m/S 748 mmHg 56%
    11:00 +18°C° 0 mm 1 m/S 748 mmHg 45%
    12:00 +19°C° 0 mm 1 m/S 747 mmHg 42%
    13:00 +19°C° 0 mm 1 m/S 747 mmHg 38%
    14:00 +20°C° 0 mm 1 m/S 746 mmHg 35%
    15:00 +18°C° 0 mm 1 m/S 746 mmHg 43%
    16:00 +15°C° 0 mm 1 m/S 746 mmHg 51%
    17:00 +13°C° 0 mm 1 m/S 746 mmHg 59%
    18:00 +12°C° 0 mm 1 m/S 746 mmHg 61%
    19:00 +11°C° 0 mm 1 m/S 747 mmHg 64%
    20:00 +10°C° 0 mm 1 m/S 747 mmHg 66%
    21:00 +10°C° 0 mm 1 m/S 747 mmHg 64%
    22:00 +9°C° 0 mm 1 m/S 747 mmHg 63%
    23:00 +9°C° 0 mm 1 m/S 747 mmHg 61%

    18 Dezember, Dienstag

    Zeit Temperatur Niederschläge Wind Luftdruck Luftfeuchtigkeit
    00:00 +8°C° 0 mm 1 m/S 747 mmHg 60%
    01:00 +8°C° 0 mm 1 m/S 746 mmHg 58%
    02:00 +8°C° 0 mm 1 m/S 746 mmHg 56%
    03:00 +8°C° 0 mm 1 m/S 746 mmHg 55%
    04:00 +7°C° 0 mm 1 m/S 746 mmHg 54%
    05:00 +7°C° 0 mm 1 m/S 746 mmHg 53%
    06:00 +8°C° 0 mm 1 m/S 746 mmHg 52%
    07:00 +9°C° 0 mm 1 m/S 747 mmHg 51%
    08:00 +10°C° 0 mm 1 m/S 747 mmHg 50%
    09:00 +12°C° 0 mm 1 m/S 747 mmHg 45%
    10:00 +15°C° 0 mm 1 m/S 747 mmHg 40%
    11:00 +17°C° 0 mm 0 m/S 746 mmHg 34%
    12:00 +20°C° 0 mm 1 m/S 746 mmHg 35%
    13:00 +20°C° 0 mm 1 m/S 745 mmHg 35%
    14:00 +20°C° 0 mm 1 m/S 744 mmHg 36%
    15:00 +18°C° 0 mm 1 m/S 744 mmHg 45%
    16:00 +15°C° 0 mm 1 m/S 744 mmHg 55%
    17:00 +14°C° 0 mm 1 m/S 744 mmHg 64%
    18:00 +13°C° 0 mm 1 m/S 745 mmHg 70%
    19:00 +11°C° 0 mm 1 m/S 745 mmHg 76%
    20:00 +10°C° 0 mm 1 m/S 745 mmHg 82%
    21:00 +10°C° 0 mm 1 m/S 745 mmHg 84%
    22:00 +10°C° 0 mm 1 m/S 745 mmHg 87%
    23:00 +10°C° 0 mm 1 m/S 745 mmHg 89%
    Mehr zeigen